Terminal Aerodrome Forecast
Issued by NWS

Home | Current Version | Previous Version | Text Only | Print | Product List | Glossary On
Versions: 1 2 3 4 5 6 7 8 9 10 11 12 13 14 15 16 17 18 19 20
000
FTUS45 KREV 272300
TAFCXP
TAF
KCXP 272320Z 2800/2824 26012G20KT P6SM VCSH SCT040 BKN060
     FM280400 29010KT 6SM -SHRASN BKN025 OVC035
     FM281000 04005KT 2SM -SN SCT010 OVC020=

USA.gov is the U.S. government's official web portal to all federal, state and local government web resources and services.